Shannon, Ireland

9:17 PM IST on September 23, 2017 (GMT +0100)
Shannon

Weather History for EINN - August, 2012

Change the Weather History Date:

Friday, August 17, 2012

  Actual Average Record
Temperature  
Mean Temperature 62 °F -  
Max Temperature 70 °F 65 °F 71 °F (1997)
Min Temperature 55 °F 51 °F 44 °F (2011)
Degree Days  
Heating Degree Days 2    
Growing Degree Days 12 (Base 50)    
Moisture  
Dew Point 59 °F    
Average Humidity 89    
Maximum Humidity 100    
Minimum Humidity 54    
Precipitation  
Precipitation 0.08 in 0.11 in - ()
Sea Level Pressure  
Sea Level Pressure 29.60 in    
Wind  
Wind Speed 5 mph ()    
Max Wind Speed 15 mph    
Max Gust Speed -    
Visibility 5.5 miles    
Events Rain    
Averages and records for this station are not official NWS values.
T = Trace of Precipitation, MM = Missing Value Source: Averaged Metar Reports

Daily Weather History Graph

Daily Weather History Graph

Search for Another Location

Airport or City:

Trip Planner

Search our weather history database for the weather conditions in past years. The results will help you decide how hot, cold, wet, or windy it might be!

Date:

Astronomy

Aug. 17, 2012 Rise Set
Actual Time 6:21 AM IST 8:56 PM IST
Civil Twilight 5:43 AM IST 9:34 PM IST
Nautical Twilight 4:53 AM IST 10:23 PM IST
Astronomical Twilight 3:53 AM IST 11:23 PM IST
Moon 6:16 AM IST (8/17) 8:20 PM IST (8/17)
Length of Visible Light 15h 51m
Length of Day
14h 35m
Waning Crescent, 0% of the Moon is Illuminated
Aug 17
Waning Crescent
Aug 17
New
Aug 24
First Quarter
Aug 31
Full
Sep 8
Last Quarter

Hourly Weather History & Observations

Time (IST) Temp. Dew Point Humidity Pressure Visibility Wind Dir Wind Speed Gust Speed Precip Events Conditions
12:00 AM 57.2 °F 55.4 °F 94% 29.56 in 3.1 mi North 1.2 mph - N/A   Light Drizzle
12:30 AM 57.2 °F 55.4 °F 94% 29.56 in 2.5 mi NW 4.6 mph - N/A   Light Drizzle
1:00 AM 57 °F 56 °F 97% 29.57 in 2 mi NNW 2.2 mph - - Rain Light Drizzle
1:00 AM 57.2 °F 57.2 °F 100% 29.56 in 2.5 mi NNW 2.3 mph - N/A   Light Drizzle
1:30 AM 57.2 °F 57.2 °F 100% 29.56 in 2.5 mi WNW 3.5 mph - N/A   Light Drizzle
2:00 AM 57.2 °F 57.2 °F 100% 29.56 in 2.5 mi NW 3.5 mph - N/A   Light Drizzle
2:30 AM 57.2 °F 57.2 °F 100% 29.56 in 2.5 mi NNW 1.2 mph - N/A   Light Drizzle
3:00 AM 57.2 °F 57.2 °F 100% 29.56 in 1.9 mi West 3.5 mph - N/A   Light Drizzle
3:30 AM 57.2 °F 57.2 °F 100% 29.56 in 0.7 mi West 3.5 mph - N/A Rain Light Rain
4:00 AM 59.0 °F 57.2 °F 94% 29.56 in 3.1 mi WSW 5.8 mph - N/A Rain Light Rain
4:30 AM 57.2 °F 57.2 °F 100% 29.56 in 5.6 mi SW 5.8 mph - N/A Rain Light Rain
5:00 AM 57.2 °F 55.4 °F 94% 29.56 in 6.2 mi WSW 5.8 mph - N/A   Overcast
5:30 AM 57.2 °F 55.4 °F 94% 29.56 in 6.2 mi WSW 4.6 mph - N/A   Overcast
6:00 AM 57.2 °F 55.4 °F 94% 29.56 in 6.2 mi SW 4.6 mph - N/A   Mostly Cloudy
6:30 AM 57.2 °F 55.4 °F 94% 29.59 in 6.2 mi SW 3.5 mph - N/A   Overcast
7:00 AM 57 °F 55 °F 92% 29.61 in 12 mi WSW 4.5 mph - -   Partly Cloudy
7:00 AM 57.2 °F 55.4 °F 94% 29.59 in 6.2 mi WSW 4.6 mph - N/A   Mostly Cloudy
7:30 AM 57.2 °F 55.4 °F 94% 29.59 in 6.2 mi West 3.5 mph - N/A   Mostly Cloudy
8:00 AM 55.4 °F 55.4 °F 100% 29.62 in 6.2 mi WNW 3.5 mph - N/A   Mostly Cloudy
8:30 AM 57.2 °F 55.4 °F 94% 29.62 in 6.2 mi NW 3.5 mph - N/A   Mostly Cloudy
9:00 AM 57.2 °F 55.4 °F 94% 29.62 in 6.2 mi NNW 3.5 mph - N/A   Overcast
9:30 AM 57.2 °F 55.4 °F 94% 29.62 in 6.2 mi North 1.2 mph - N/A   Mostly Cloudy
10:00 AM 60.8 °F 55.4 °F 82% 29.62 in 6.2 mi ESE 3.5 mph - N/A   Mostly Cloudy
10:30 AM 60.8 °F 57.2 °F 88% 29.62 in 6.2 mi ESE 4.6 mph - N/A   Mostly Cloudy
11:00 AM 62.6 °F 57.2 °F 82% 29.62 in 6.2 mi East 6.9 mph - N/A   Mostly Cloudy
11:30 AM 64.4 °F 59.0 °F 83% 29.62 in 6.2 mi ESE 6.9 mph - N/A   Partly Cloudy
12:00 PM 66.2 °F 59.0 °F 78% 29.62 in 6.2 mi SE 8.1 mph - N/A   Mostly Cloudy
12:30 PM 66.2 °F 57.2 °F 73% 29.62 in 6.2 mi ESE 6.9 mph - N/A   Partly Cloudy
1:00 PM 69 °F 56 °F 54% 29.64 in 37 mi ESE 8.9 mph - -   Scattered Clouds
1:00 PM 69.8 °F 55.4 °F 60% 29.62 in 6.2 mi ESE 9.2 mph - N/A   Scattered Clouds
1:30 PM 69.8 °F 57.2 °F 64% 29.62 in 6.2 mi SE 12.7 mph - N/A   Mostly Cloudy
2:00 PM 69.8 °F 59.0 °F 68% 29.62 in 6.2 mi SE 11.5 mph - N/A   Mostly Cloudy
2:30 PM 69.8 °F 59.0 °F 68% 29.62 in 6.2 mi SE 13.8 mph - N/A   Mostly Cloudy
3:00 PM 68.0 °F 59.0 °F 73% 29.62 in 6.2 mi SE 10.4 mph - N/A   Mostly Cloudy
3:30 PM 68.0 °F 59.0 °F 73% 29.62 in 6.2 mi SE 11.5 mph - N/A   Mostly Cloudy
4:00 PM 64.4 °F 60.8 °F 88% 29.62 in 3.7 mi ESE 10.4 mph - N/A Rain Light Rain
4:30 PM 64.4 °F 62.6 °F 94% 29.62 in 3.7 mi ESE 8.1 mph - N/A Rain Light Rain
5:00 PM 64.4 °F 62.6 °F 94% 29.62 in 3.7 mi East 11.5 mph - N/A Rain Light Rain
5:30 PM 64.4 °F 62.6 °F 94% 29.59 in 6.2 mi East 10.4 mph - N/A Rain Light Rain
6:00 PM 64.4 °F 62.6 °F 94% 29.59 in 6.2 mi East 11.5 mph - N/A   Mostly Cloudy
6:30 PM 64.4 °F 62.6 °F 94% 29.59 in 6.2 mi East 8.1 mph - N/A   Mostly Cloudy
7:00 PM 64 °F 64 °F 99% 29.62 in 12 mi East 8.9 mph - - Rain Light Drizzle
7:00 PM 64.4 °F 64.4 °F 100% 29.59 in 6.2 mi East 9.2 mph - N/A   Mostly Cloudy
7:30 PM 66.2 °F 64.4 °F 94% 29.59 in 6.2 mi East 15.0 mph - N/A   Mostly Cloudy
8:00 PM 66.2 °F 64.4 °F 94% 29.59 in 6.2 mi SE 15.0 mph - N/A   Mostly Cloudy
8:30 PM 66.2 °F 62.6 °F 88% 29.62 in 6.2 mi SE 15.0 mph - N/A   Mostly Cloudy
9:00 PM 64.4 °F 62.6 °F 94% 29.62 in 6.2 mi SE 10.4 mph - N/A   Mostly Cloudy
9:30 PM 64.4 °F 62.6 °F 94% 29.62 in 6.2 mi SE 6.9 mph - N/A   Mostly Cloudy
10:00 PM 64.4 °F 60.8 °F 88% 29.65 in 6.2 mi SE 5.8 mph - N/A   Mostly Cloudy
10:30 PM 62.6 °F 60.8 °F 94% 29.65 in 6.2 mi SSE 9.2 mph - N/A   Mostly Cloudy
11:00 PM 62.6 °F 60.8 °F 94% 29.65 in 6.2 mi SSE 11.5 mph - N/A   Mostly Cloudy
11:30 PM 62.6 °F 60.8 °F 94% 29.65 in 6.2 mi SSE 12.7 mph - N/A   Mostly Cloudy